| time (UTC) | temp C | wind direction | speed KPH | gust KPH | rain 1hr cm | rain 24hr cm | rain mn cm | humidity % | barometer mb |
| 20260507051537 | 14 | 86 | 0.0 | 0.0 | 0.00 | 0.00 | 0.00 | 87 | 974.8 |
| 20260507050035 | 14 | 100 | 0.0 | 0.0 | 0.00 | 0.00 | 0.00 | 86 | 974.8 |
| 20260507044536 | 15 | 123 | 0.0 | 0.0 | 0.00 | 0.00 | 0.00 | 86 | 974.8 |
| 20260507043037 | 15 | 112 | 0.0 | 0.0 | 0.00 | 0.00 | 0.00 | 85 | 974.8 |
| 20260507041534 | 15 | 110 | 0.0 | 0.0 | 0.00 | 0.00 | 0.00 | 84 | 974.8 |
| 20260507040035 | 16 | 108 | 0.0 | 0.0 | 0.00 | 0.00 | 0.00 | 83 | 974.8 |
| 20260507034534 | 16 | 96 | 0.0 | 0.0 | 0.00 | 0.00 | 0.00 | 81 | 974.8 |
| 20260507033037 | 17 | 96 | 0.0 | 0.0 | 0.00 | 0.00 | 0.00 | 77 | 974.8 |
| 20260507031533 | 18 | 117 | 0.0 | 0.0 | 0.00 | 0.00 | 0.00 | 75 | 974.8 |
| 20260507030033 | 19 | 105 | 0.0 | 0.0 | 0.00 | 0.00 | 0.00 | 72 | 974.8 |
| 20260507024534 | 19 | 44 | 0.0 | 0.0 | 0.00 | 0.00 | 0.00 | 73 | 974.8 |
| 20260507023031 | 19 | 262 | 0.0 | 0.0 | 0.00 | 0.00 | 0.00 | 71 | 974.8 |
| 20260507021531 | 20 | 238 | 0.0 | 0.0 | 0.00 | 0.00 | 0.00 | 69 | 974.8 |
| 20260507020033 | 20 | 256 | 0.0 | 0.0 | 0.00 | 0.00 | 0.00 | 67 | 974.8 |
| 20260507014529 | 22 | 227 | 0.0 | 0.0 | 0.00 | 0.00 | 0.00 | 64 | 974.8 |
| 20260507013035 | 22 | 273 | 0.0 | 0.0 | 0.00 | 0.00 | 0.00 | 65 | 974.8 |
| 20260507011536 | 22 | 244 | 0.0 | 0.0 | 0.00 | 0.00 | 0.00 | 65 | 974.8 |
| 20260507010028 | 22 | 257 | 0.0 | 0.0 | 0.00 | 0.00 | 0.00 | 63 | 974.8 |
| 20260507004525 | 22 | 246 | 0.0 | 0.0 | 0.00 | 0.00 | 0.00 | 64 | 974.8 |
| 20260507003024 | 22 | 259 | 0.0 | 0.0 | 0.00 | 0.00 | 0.00 | 63 | 974.8 |
| 20260507001523 | 22 | 237 | 0.0 | 0.0 | 0.00 | 0.00 | 0.00 | 63 | 974.8 |
| 20260507000023 | 22 | 259 | 0.0 | 0.0 | 0.00 | 0.00 | 0.00 | 63 | 974.8 |
| 20260506234528 | 22 | 229 | 0.0 | 0.0 | 0.00 | 0.00 | 0.00 | 63 | 974.8 |
| 20260506233021 | 22 | 270 | 0.0 | 0.0 | 0.00 | 0.00 | 0.00 | 62 | 974.8 |
| 20260506231519 | 22 | 263 | 0.0 | 0.0 | 0.00 | 0.00 | 0.00 | 62 | 974.8 |
| 20260506230015 | 22 | 227 | 0.0 | 0.0 | 0.00 | 0.00 | 0.00 | 63 | 974.8 |
| 20260506224524 | 22 | 304 | 0.0 | 0.0 | 0.00 | 0.00 | 0.00 | 63 | 974.8 |
| 20260506223015 | 22 | 186 | 0.0 | 0.0 | 0.00 | 0.00 | 0.00 | 63 | 974.8 |
| 20260506221512 | 22 | 297 | 0.0 | 0.0 | 0.00 | 0.00 | 0.00 | 63 | 974.8 |
| 20260506220012 | 22 | 285 | 0.0 | 0.0 | 0.00 | 0.00 | 0.00 | 61 | 974.8 |
| 20260506214511 | 22 | 294 | 0.0 | 0.0 | 0.00 | 0.00 | 0.00 | 61 | 974.8 |
| 20260506213019 | 22 | 249 | 0.0 | 0.0 | 0.00 | 0.00 | 0.00 | 61 | 974.8 |
| 20260506211515 | 22 | 260 | 0.0 | 0.0 | 0.00 | 0.00 | 0.00 | 61 | 974.8 |
| 20260506210007 | 22 | 259 | 0.0 | 0.0 | 0.00 | 0.00 | 0.00 | 62 | 974.8 |
| 20260506204505 | 21 | 208 | 0.0 | 0.0 | 0.00 | 0.00 | 0.00 | 63 | 974.8 |
| 20260506203001 | 21 | 290 | 0.0 | 0.0 | 0.00 | 0.00 | 0.00 | 64 | 974.8 |
| 20260506201559 | 21 | 261 | 0.0 | 0.0 | 0.00 | 0.00 | 0.00 | 64 | 974.8 |
| 20260506200056 | 20 | 311 | 0.0 | 0.0 | 0.00 | 0.00 | 0.00 | 65 | 974.8 |
| 20260506194553 | 20 | 236 | 0.0 | 0.0 | 0.00 | 0.00 | 0.00 | 66 | 974.8 |
| 20260506193051 | 20 | 250 | 0.0 | 0.0 | 0.00 | 0.00 | 0.00 | 65 | 974.8 |
| 20260506191552 | 19 | 244 | 0.0 | 0.0 | 0.00 | 0.00 | 0.00 | 66 | 974.8 |
| 20260506190049 | 19 | 199 | 0.0 | 0.0 | 0.00 | 0.00 | 0.00 | 67 | 974.8 |
| 20260506184552 | 19 | 248 | 0.0 | 0.0 | 0.00 | 0.00 | 0.00 | 67 | 974.8 |
| 20260506183039 | 18 | 259 | 0.0 | 0.0 | 0.00 | 0.00 | 0.00 | 69 | 974.8 |
| 20260506181538 | 18 | 261 | 0.0 | 0.0 | 0.00 | 0.00 | 0.00 | 69 | 974.8 |
| 20260506180035 | 18 | 269 | 0.0 | 0.0 | 0.00 | 0.00 | 0.00 | 69 | 974.8 |
| 20260506174530 | 18 | 247 | 0.0 | 0.0 | 0.00 | 0.00 | 0.00 | 70 | 974.8 |
| 20260506173032 | 18 | 232 | 0.0 | 0.0 | 0.00 | 0.00 | 0.00 | 71 | 974.8 |
| 20260506171523 | 18 | 161 | 0.0 | 0.0 | 0.00 | 0.00 | 0.00 | 72 | 974.8 |
| 20260506170021 | 17 | 250 | 0.0 | 0.0 | 0.00 | 0.00 | 0.00 | 72 | 974.8 |
| 20260506164516 | 17 | 159 | 0.0 | 0.0 | 0.00 | 0.00 | 0.00 | 74 | 974.8 |
| 20260506163027 | 17 | 186 | 0.0 | 0.0 | 0.00 | 0.00 | 0.00 | 74 | 974.8 |
| 20260506161512 | 17 | 153 | 0.0 | 0.0 | 0.00 | 0.00 | 0.00 | 76 | 974.8 |
| 20260506160007 | 16 | 205 | 0.0 | 0.0 | 0.00 | 0.00 | 0.00 | 77 | 974.8 |
| 20260506154516 | 16 | 130 | 0.0 | 0.0 | 0.00 | 0.00 | 0.00 | 79 | 974.8 |
| 20260506153001 | 15 | 86 | 0.0 | 0.0 | 0.00 | 0.00 | 0.00 | 80 | 974.8 |
| 20260506151558 | 15 | 46 | 0.0 | 0.0 | 0.00 | 0.00 | 0.00 | 82 | 974.8 |
| 20260506150056 | 14 | 29 | 0.0 | 0.0 | 0.00 | 0.00 | 0.00 | 84 | 974.8 |
| 20260506144555 | 13 | 30 | 0.0 | 0.0 | 0.00 | 0.00 | 0.00 | 84 | 974.8 |
| 20260506143054 | 13 | 30 | 0.0 | 0.0 | 0.00 | 0.00 | 0.00 | 85 | 974.8 |
| 20260506141551 | 13 | 30 | 0.0 | 0.0 | 0.00 | 0.00 | 0.00 | 85 | 974.8 |
| 20260506140048 | 13 | 30 | 0.0 | 0.0 | 0.00 | 0.00 | 0.00 | 85 | 974.8 |
| 20260506134546 | 13 | 30 | 0.0 | 0.0 | 0.00 | 0.00 | 0.00 | 85 | 974.8 |
| 20260506133047 | 13 | 30 | 0.0 | 0.0 | 0.00 | 0.00 | 0.00 | 85 | 974.8 |
| 20260506131544 | 13 | 28 | 0.0 | 0.0 | 0.00 | 0.00 | 0.00 | 86 | 974.8 |
| 20260506130043 | 12 | 28 | 0.0 | 0.0 | 0.00 | 0.00 | 0.00 | 86 | 974.8 |
| 20260506124545 | 12 | 28 | 0.0 | 0.0 | 0.00 | 0.00 | 0.00 | 86 | 974.8 |
| 20260506123042 | 12 | 28 | 0.0 | 0.0 | 0.00 | 0.00 | 0.00 | 86 | 974.8 |
| 20260506121550 | 12 | 28 | 0.0 | 0.0 | 0.00 | 0.00 | 0.00 | 86 | 974.8 |
| 20260506120042 | 12 | 28 | 0.0 | 0.0 | 0.00 | 0.00 | 0.00 | 86 | 974.8 |
| 20260506114541 | 12 | 28 | 0.0 | 0.0 | 0.00 | 0.00 | 0.00 | 87 | 974.8 |
| 20260506113040 | 12 | 28 | 0.0 | 0.0 | 0.00 | 0.00 | 0.00 | 87 | 974.8 |
| 20260506111539 | 12 | 28 | 0.0 | 0.0 | 0.00 | 0.00 | 0.00 | 86 | 974.8 |
| 20260506110041 | 12 | 28 | 0.0 | 0.0 | 0.00 | 0.00 | 0.00 | 86 | 974.8 |
| 20260506104539 | 12 | 28 | 0.0 | 0.0 | 0.00 | 0.00 | 0.00 | 86 | 974.8 |
| 20260506103037 | 12 | 28 | 0.0 | 0.0 | 0.00 | 0.00 | 0.00 | 86 | 974.8 |
| 20260506101537 | 12 | 28 | 0.0 | 0.0 | 0.00 | 0.00 | 0.00 | 85 | 974.8 |
| 20260506100038 | 12 | 28 | 0.0 | 0.0 | 0.00 | 0.00 | 0.00 | 85 | 974.8 |
| 20260506094535 | 12 | 28 | 0.0 | 0.0 | 0.00 | 0.00 | 0.00 | 85 | 974.8 |
| 20260506093033 | 12 | 28 | 0.0 | 0.0 | 0.00 | 0.00 | 0.00 | 85 | 974.8 |
| 20260506091532 | 13 | 28 | 0.0 | 0.0 | 0.00 | 0.00 | 0.00 | 84 | 974.8 |
| 20260506090029 | 13 | 28 | 0.0 | 0.0 | 0.00 | 0.00 | 0.00 | 83 | 974.8 |
| 20260506084536 | 13 | 28 | 0.0 | 0.0 | 0.00 | 0.00 | 0.00 | 81 | 974.8 |
| 20260506083031 | 13 | 30 | 0.0 | 0.0 | 0.00 | 0.00 | 0.00 | 81 | 974.8 |
| 20260506081525 | 13 | 30 | 0.0 | 0.0 | 0.00 | 0.00 | 0.00 | 80 | 974.8 |
| 20260506073021 | 14 | 30 | 0.0 | 0.0 | 0.00 | 0.00 | 0.00 | 78 | 974.8 |
| 20260506071520 | 14 | 30 | 0.0 | 0.0 | 0.00 | 0.00 | 0.00 | 78 | 974.8 |
| 20260506061516 | 15 | 30 | 0.0 | 0.0 | 0.00 | 0.00 | 0.00 | 78 | 974.8 |